Time,TemperatureF,DewpointF,PressureIn,WindDirection,WindDirectionDegrees,WindSpeedMPH,WindSpeedGustMPH,Humidity,HourlyPrecipIn,Conditions,Clouds,dailyrainin,SolarRadiationWatts/m^2,SoftwareType,DateUTC
2013-01-23 00:21:00,58.5,35.0,30.00,ESE,123,1.0,9.0,41,0.00,,,0.00,0,weatherlink.com 1.10,2013-01-23 08:21:00,
2013-01-23 00:36:00,58.3,34.0,29.99,ENE,61,5.0,12.0,41,0.00,,,0.00,0,weatherlink.com 1.10,2013-01-23 08:36:00,
2013-01-23 00:51:00,58.1,34.0,29.98,NE,46,8.0,12.0,41,0.00,,,0.00,0,weatherlink.com 1.10,2013-01-23 08:51:00,
2013-01-23 01:06:00,58.3,35.0,29.96,NE,39,9.0,18.0,42,0.00,,,0.00,0,weatherlink.com 1.10,2013-01-23 09:06:00,
2013-01-23 01:21:00,58.5,35.0,29.96,ESE,106,9.0,17.0,41,0.00,,,0.00,0,weatherlink.com 1.10,2013-01-23 09:21:00,
2013-01-23 01:36:00,58.9,34.0,29.96,NNE,28,7.0,15.0,39,0.00,,,0.00,0,weatherlink.com 1.10,2013-01-23 09:36:00,
2013-01-23 01:52:00,59.0,33.0,29.96,NE,43,7.0,17.0,38,0.00,,,0.00,0,weatherlink.com 1.10,2013-01-23 09:52:00,
2013-01-23 02:06:00,59.0,34.0,29.96,East,84,9.0,18.0,39,0.00,,,0.00,0,weatherlink.com 1.10,2013-01-23 10:06:00,
2013-01-23 02:21:00,58.9,34.0,29.96,ENE,67,7.0,17.0,39,0.00,,,0.00,0,weatherlink.com 1.10,2013-01-23 10:21:00,
2013-01-23 02:37:00,58.7,35.0,29.96,ENE,68,7.0,15.0,41,0.00,,,0.00,0,weatherlink.com 1.10,2013-01-23 10:37:00,
2013-01-23 02:51:00,57.8,36.0,29.97,NNE,32,7.0,12.0,44,0.00,,,0.00,0,weatherlink.com 1.10,2013-01-23 10:51:00,
2013-01-23 03:07:00,58.0,35.0,29.96,ENE,66,2.0,13.0,42,0.00,,,0.00,0,weatherlink.com 1.10,2013-01-23 11:07:00,
2013-01-23 03:21:00,58.3,36.0,29.95,NE,52,8.0,11.0,44,0.00,,,0.00,0,weatherlink.com 1.10,2013-01-23 11:21:00,
2013-01-23 03:36:00,57.2,39.0,29.96,NE,49,4.0,10.0,51,0.00,,,0.00,0,weatherlink.com 1.10,2013-01-23 11:36:00,
2013-01-23 03:52:00,56.0,38.0,29.94,NE,44,9.0,12.0,52,0.00,,,0.00,0,weatherlink.com 1.10,2013-01-23 11:52:00,
2013-01-23 04:07:00,56.0,38.0,29.94,NE,42,6.0,9.0,52,0.00,,,0.00,0,weatherlink.com 1.10,2013-01-23 12:07:00,
2013-01-23 04:22:00,56.4,38.0,29.95,ENE,59,4.0,11.0,50,0.00,,,0.00,0,weatherlink.com 1.10,2013-01-23 12:22:00,
2013-01-23 04:37:00,55.3,38.0,29.96,ESE,113,11.0,13.0,53,0.00,,,0.00,0,weatherlink.com 1.10,2013-01-23 12:37:00,
2013-01-23 04:52:00,54.8,39.0,29.94,NNE,23,9.0,9.0,56,0.00,,,0.00,0,weatherlink.com 1.10,2013-01-23 12:52:00,
2013-01-23 05:07:00,53.2,41.0,29.93,NNE,30,5.0,16.0,64,0.00,,,0.00,0,weatherlink.com 1.10,2013-01-23 13:07:00,
2013-01-23 05:22:00,51.6,42.0,29.92,NNE,27,6.0,11.0,70,0.01,,,0.01,0,weatherlink.com 1.10,2013-01-23 13:22:00,
2013-01-23 05:37:00,52.3,42.0,29.91,NNE,20,6.0,14.0,67,0.01,,,0.01,0,weatherlink.com 1.10,2013-01-23 13:37:00,
2013-01-23 05:52:00,53.2,41.0,29.91,NE,40,5.0,16.0,64,0.01,,,0.01,0,weatherlink.com 1.10,2013-01-23 13:52:00,
2013-01-23 06:07:00,54.1,40.0,29.92,East,99,6.0,15.0,59,0.01,,,0.01,0,weatherlink.com 1.10,2013-01-23 14:07:00,
2013-01-23 06:23:00,55.4,39.0,29.91,NNE,26,8.0,13.0,55,0.00,,,0.01,0,weatherlink.com 1.10,2013-01-23 14:23:00,
2013-01-23 06:37:00,55.6,40.0,29.90,NNE,24,10.0,19.0,56,0.00,,,0.01,0,weatherlink.com 1.10,2013-01-23 14:37:00,
2013-01-23 06:52:00,56.6,38.0,29.91,East,94,10.0,18.0,50,0.00,,,0.01,0,weatherlink.com 1.10,2013-01-23 14:52:00,
2013-01-23 07:07:00,57.5,37.0,29.93,SSE,153,4.0,15.0,47,0.00,,,0.01,0,weatherlink.com 1.10,2013-01-23 15:07:00,
2013-01-23 07:22:00,56.5,41.0,29.94,ESE,106,3.0,6.0,56,0.00,,,0.01,0,weatherlink.com 1.10,2013-01-23 15:22:00,
2013-01-23 07:37:00,55.5,40.0,29.94,NE,46,4.0,5.0,56,0.00,,,0.01,0,weatherlink.com 1.10,2013-01-23 15:37:00,
2013-01-23 07:52:00,55.7,39.0,29.95,NNE,33,1.0,4.0,53,0.00,,,0.01,5,weatherlink.com 1.10,2013-01-23 15:52:00,
2013-01-23 08:07:00,55.9,38.0,29.96,NE,49,3.0,5.0,52,0.00,,,0.01,9,weatherlink.com 1.10,2013-01-23 16:07:00,
2013-01-23 08:22:00,55.9,40.0,29.97,NNE,28,0.0,3.0,56,0.00,,,0.01,21,weatherlink.com 1.10,2013-01-23 16:22:00,
2013-01-23 08:37:00,54.5,42.0,29.97,NE,44,4.0,6.0,63,0.01,,,0.02,23,weatherlink.com 1.10,2013-01-23 16:37:00,
2013-01-23 08:52:00,53.9,41.0,29.98,NE,42,2.0,6.0,63,0.01,,,0.02,42,weatherlink.com 1.10,2013-01-23 16:52:00,
2013-01-23 09:07:00,54.8,41.0,29.98,NNE,24,2.0,5.0,61,0.01,,,0.02,70,weatherlink.com 1.10,2013-01-23 17:07:00,
2013-01-23 09:22:00,55.8,41.0,29.98,NE,44,3.0,8.0,58,0.01,,,0.02,54,weatherlink.com 1.10,2013-01-23 17:22:00,
2013-01-23 09:37:00,56.3,41.0,29.97,North,5,3.0,6.0,56,0.00,,,0.02,90,weatherlink.com 1.10,2013-01-23 17:37:00,
2013-01-23 09:52:00,57.0,40.0,29.98,NNE,24,6.0,7.0,53,0.00,,,0.02,109,weatherlink.com 1.10,2013-01-23 17:52:00,
2013-01-23 10:07:00,57.6,40.0,29.98,South,178,2.0,9.0,53,0.00,,,0.02,109,weatherlink.com 1.10,2013-01-23 18:07:00,
2013-01-23 10:22:00,58.4,40.0,29.98,NE,43,7.0,12.0,50,0.00,,,0.02,90,weatherlink.com 1.10,2013-01-23 18:22:00,
2013-01-23 10:37:00,58.6,39.0,29.98,NE,54,1.0,13.0,48,0.00,,,0.02,162,weatherlink.com 1.10,2013-01-23 18:37:00,
2013-01-23 10:52:00,59.5,38.0,29.98,ENE,62,3.0,9.0,45,0.00,,,0.02,120,weatherlink.com 1.10,2013-01-23 18:52:00,
2013-01-23 11:07:00,59.8,38.0,29.99,SE,126,2.0,8.0,44,0.00,,,0.02,74,weatherlink.com 1.10,2013-01-23 19:07:00,
2013-01-23 11:22:00,59.5,38.0,29.99,SE,131,4.0,8.0,45,0.00,,,0.02,60,weatherlink.com 1.10,2013-01-23 19:22:00,
2013-01-23 11:37:00,59.5,37.0,29.99,ENE,78,3.0,11.0,43,0.00,,,0.02,42,weatherlink.com 1.10,2013-01-23 19:37:00,
2013-01-23 11:52:00,59.5,37.0,30.00,ESE,117,12.0,18.0,44,0.00,,,0.02,40,weatherlink.com 1.10,2013-01-23 19:52:00,
2013-01-23 12:07:00,57.9,39.0,30.02,ESE,116,10.0,33.0,50,0.00,,,0.02,46,weatherlink.com 1.10,2013-01-23 20:07:00,
2013-01-23 12:22:00,54.2,43.0,30.03,SE,130,8.0,29.0,66,0.02,,,0.04,37,weatherlink.com 1.10,2013-01-23 20:22:00,
2013-01-23 12:37:00,52.3,44.0,30.01,NE,50,4.0,7.0,72,0.05,,,0.07,63,weatherlink.com 1.10,2013-01-23 20:37:00,
2013-01-23 12:53:00,51.2,44.0,30.00,NNE,32,2.0,6.0,75,0.05,,,0.07,74,weatherlink.com 1.10,2013-01-23 20:53:00,
2013-01-23 13:08:00,51.2,44.0,30.00,NE,42,4.0,7.0,76,0.06,,,0.08,65,weatherlink.com 1.10,2013-01-23 21:08:00,
2013-01-23 13:23:00,50.9,44.0,30.00,NE,45,2.0,8.0,76,0.06,,,0.10,39,weatherlink.com 1.10,2013-01-23 21:23:00,
2013-01-23 13:38:00,50.5,44.0,30.01,ENE,68,2.0,9.0,77,0.05,,,0.12,51,weatherlink.com 1.10,2013-01-23 21:38:00,
2013-01-23 13:53:00,50.3,44.0,30.00,NE,35,3.0,12.0,79,0.07,,,0.14,40,weatherlink.com 1.10,2013-01-23 21:53:00,
2013-01-23 14:08:00,50.3,44.0,30.00,NE,44,7.0,12.0,80,0.08,,,0.16,49,weatherlink.com 1.10,2013-01-23 22:08:00,
2013-01-23 14:23:00,50.3,45.0,30.00,NNE,15,2.0,14.0,81,0.08,,,0.18,33,weatherlink.com 1.10,2013-01-23 22:23:00,
2013-01-23 14:38:00,50.5,45.0,30.01,NE,40,5.0,8.0,81,0.08,,,0.20,32,weatherlink.com 1.10,2013-01-23 22:38:00,
2013-01-23 14:53:00,50.8,46.0,30.01,NE,55,1.0,10.0,82,0.08,,,0.22,32,weatherlink.com 1.10,2013-01-23 22:53:00,
2013-01-23 15:08:00,50.9,46.0,30.01,NE,38,3.0,12.0,82,0.07,,,0.23,25,weatherlink.com 1.10,2013-01-23 23:08:00,
2013-01-23 15:23:00,50.9,46.0,30.01,ESE,118,2.0,10.0,82,0.06,,,0.24,26,weatherlink.com 1.10,2013-01-23 23:23:00,
2013-01-23 15:38:00,50.5,45.0,30.02,NNE,30,11.0,12.0,82,0.04,,,0.24,23,weatherlink.com 1.10,2013-01-23 23:38:00,
2013-01-23 15:53:00,50.3,45.0,30.02,ENE,72,10.0,18.0,82,0.03,,,0.25,23,weatherlink.com 1.10,2013-01-23 23:53:00,
2013-01-23 16:08:00,50.3,45.0,30.02,NE,40,9.0,15.0,82,0.03,,,0.26,21,weatherlink.com 1.10,2013-01-24 00:08:00,
2013-01-23 16:23:00,50.4,45.0,30.02,ENE,70,9.0,15.0,83,0.03,,,0.27,19,weatherlink.com 1.10,2013-01-24 00:23:00,
2013-01-23 16:38:00,50.5,46.0,30.02,SE,134,4.0,14.0,83,0.03,,,0.27,19,weatherlink.com 1.10,2013-01-24 00:38:00,
2013-01-23 16:53:00,50.4,45.0,30.03,East,92,2.0,12.0,83,0.03,,,0.28,9,weatherlink.com 1.10,2013-01-24 00:53:00,
2013-01-23 17:08:00,50.5,46.0,30.02,NE,41,14.0,16.0,83,0.03,,,0.29,7,weatherlink.com 1.10,2013-01-24 01:08:00,
2013-01-23 17:23:00,50.4,45.0,30.02,East,80,6.0,18.0,83,0.02,,,0.29,7,weatherlink.com 1.10,2013-01-24 01:23:00,
2013-01-23 17:38:00,50.4,45.0,30.02,NE,51,4.0,16.0,83,0.02,,,0.29,0,weatherlink.com 1.10,2013-01-24 01:38:00,
2013-01-23 17:53:00,50.4,45.0,30.03,East,84,7.0,15.0,83,0.01,,,0.29,0,weatherlink.com 1.10,2013-01-24 01:53:00,
2013-01-23 18:08:00,50.6,46.0,30.04,NNE,21,10.0,15.0,83,0.00,,,0.29,0,weatherlink.com 1.10,2013-01-24 02:08:00,
2013-01-23 18:23:00,50.7,46.0,30.03,NE,38,14.0,20.0,83,0.00,,,0.29,0,weatherlink.com 1.10,2013-01-24 02:23:00,
2013-01-23 18:38:00,51.0,46.0,30.03,ENE,63,2.0,17.0,83,0.01,,,0.30,0,weatherlink.com 1.10,2013-01-24 02:38:00,
2013-01-23 18:53:00,51.5,47.0,30.03,NE,44,12.0,15.0,83,0.01,,,0.30,0,weatherlink.com 1.10,2013-01-24 02:53:00,
2013-01-23 19:08:00,51.5,46.0,30.04,NE,44,12.0,19.0,82,0.01,,,0.30,0,weatherlink.com 1.10,2013-01-24 03:08:00,
2013-01-23 19:23:00,51.4,46.0,30.04,NE,36,12.0,21.0,82,0.01,,,0.30,0,weatherlink.com 1.10,2013-01-24 03:23:00,
2013-01-23 19:38:00,51.4,46.0,30.04,NNE,30,8.0,19.0,82,0.00,,,0.30,0,weatherlink.com 1.10,2013-01-24 03:38:00,
2013-01-23 19:53:00,51.6,46.0,30.03,ESE,109,4.0,25.0,82,0.00,,,0.30,0,weatherlink.com 1.10,2013-01-24 03:53:00,
2013-01-23 20:09:00,52.1,47.0,30.02,NNE,32,10.0,20.0,82,0.00,,,0.30,0,weatherlink.com 1.10,2013-01-24 04:09:00,
2013-01-23 20:24:00,52.4,47.0,30.04,ENE,74,7.0,16.0,81,0.00,,,0.30,0,weatherlink.com 1.10,2013-01-24 04:24:00,
2013-01-23 20:39:00,52.2,47.0,30.04,NNE,32,12.0,19.0,81,0.00,,,0.30,0,weatherlink.com 1.10,2013-01-24 04:39:00,
2013-01-23 20:53:00,52.2,47.0,30.06,NE,54,10.0,17.0,81,0.00,,,0.30,0,weatherlink.com 1.10,2013-01-24 04:53:00,
2013-01-23 21:09:00,52.2,47.0,30.06,NE,37,17.0,18.0,81,0.02,,,0.32,0,weatherlink.com 1.10,2013-01-24 05:09:00,
2013-01-23 21:24:00,52.1,47.0,30.05,NE,53,10.0,18.0,82,0.02,,,0.32,0,weatherlink.com 1.10,2013-01-24 05:24:00,
2013-01-23 21:39:00,51.9,47.0,30.06,NE,40,8.0,18.0,82,0.03,,,0.33,0,weatherlink.com 1.10,2013-01-24 05:39:00,
2013-01-23 21:53:00,51.9,47.0,30.06,NE,36,17.0,17.0,82,0.03,,,0.33,0,weatherlink.com 1.10,2013-01-24 05:53:00,
2013-01-23 22:09:00,52.0,47.0,30.06,NE,49,12.0,18.0,82,0.02,,,0.34,0,weatherlink.com 1.10,2013-01-24 06:09:00,
2013-01-23 22:23:00,52.4,47.0,30.06,NE,53,10.0,16.0,82,0.02,,,0.34,0,weatherlink.com 1.10,2013-01-24 06:23:00,
2013-01-23 22:38:00,52.3,47.0,30.06,NNE,24,9.0,15.0,82,0.01,,,0.34,0,weatherlink.com 1.10,2013-01-24 06:38:00,
2013-01-23 22:54:00,52.3,47.0,30.06,NE,42,6.0,11.0,82,0.01,,,0.34,0,weatherlink.com 1.10,2013-01-24 06:54:00,
2013-01-23 23:09:00,52.3,47.0,30.06,ENE,66,9.0,13.0,82,0.00,,,0.34,0,weatherlink.com 1.10,2013-01-24 07:09:00,
2013-01-23 23:23:00,52.6,47.0,30.06,NE,35,7.0,13.0,82,0.00,,,0.34,0,weatherlink.com 1.10,2013-01-24 07:23:00,
2013-01-23 23:39:00,52.9,47.0,30.07,North,5,7.0,15.0,81,0.00,,,0.34,0,weatherlink.com 1.10,2013-01-24 07:39:00,
2013-01-23 23:54:00,53.0,47.0,30.06,NE,56,6.0,16.0,81,0.00,,,0.34,0,weatherlink.com 1.10,2013-01-24 07:54:00,